Wichita Jabara, KS

12:27 AM CDT on June 25, 2017 (GMT -0500)
Col Jabara

Weather History for KAAO - September, 2013

Change the Weather History Date:

Tuesday, September 3, 2013

  Actual Average (KIAB) Record (KIAB)
Temperature  
Mean Temperature 72 °F -  
Max Temperature 87 °F 87 °F 105 °F (2012)
Min Temperature 59 °F 65 °F 55 °F (2008)
Cooling Degree Days 8    
Growing Degree Days 22 (Base 50)    
Moisture  
Dew Point 59 °F    
Average Humidity 67    
Maximum Humidity 93    
Minimum Humidity 37    
Precipitation  
Precipitation 0.00 in - - ()
Sea Level Pressure  
Sea Level Pressure 30.04 in    
Wind  
Wind Speed 3 mph (East)    
Max Wind Speed 8 mph    
Max Gust Speed -    
Visibility 10 miles    
Events      
Averages and records for this station are not official NWS values.
T = Trace of Precipitation, MM = Missing Value Source: NWS Daily Summary

Daily Weather History Graph

Daily Weather History Graph

Search for Another Location

Airport or City:

Trip Planner

Search our weather history database for the weather conditions in past years. The results will help you decide how hot, cold, wet, or windy it might be!

Date:

Astronomy

Sep. 03, 2013 Rise Set
Actual Time 7:00 AM CDT 7:54 PM CDT
Civil Twilight 6:34 AM CDT 8:21 PM CDT
Nautical Twilight 6:02 AM CDT 8:52 PM CDT
Astronomical Twilight 5:29 AM CDT 9:25 PM CDT
Moon 5:16 AM CDT (9/3) 6:42 PM CDT (9/3)
Length of Visible Light 13h 47m
Length of Day
12h 53m
Waning Crescent, 3% of the Moon is Illuminated
Sep 3
Waning Crescent
Sep 5
New
Sep 12
First Quarter
Sep 19
Full
Sep 26
Last Quarter

Hourly Weather History & Observations

Time (CDT) Temp. Heat Index Dew Point Humidity Pressure Visibility Wind Dir Wind Speed Gust Speed Precip Events Conditions
12:54 AM 64.0 °F - 57.9 °F 80% 30.03 in 10.0 mi NNE 5.8 mph - N/A   Clear
1:54 AM 62.1 °F - 57.9 °F 86% 30.04 in 10.0 mi NNE 5.8 mph - N/A   Clear
2:54 AM 61.0 °F - 57.9 °F 90% 30.03 in 10.0 mi NE 3.5 mph - N/A   Clear
3:54 AM 62.1 °F - 59.0 °F 90% 30.03 in 10.0 mi Calm Calm - N/A   Clear
4:54 AM 61.0 °F - 57.9 °F 90% 30.04 in 10.0 mi Calm Calm - N/A   Clear
5:54 AM 60.1 °F - 57.9 °F 93% 30.05 in 10.0 mi Calm Calm - N/A   Clear
6:54 AM 59.0 °F - 57.0 °F 93% 30.06 in 10.0 mi Calm Calm - N/A   Clear
7:54 AM 60.1 °F - 57.9 °F 93% 30.08 in 10.0 mi Calm Calm - N/A   Clear
8:54 AM 66.9 °F - 62.1 °F 84% 30.09 in 10.0 mi ESE 3.5 mph - N/A   Clear
9:54 AM 73.9 °F - 62.1 °F 66% 30.09 in 10.0 mi SSE 6.9 mph - N/A   Clear
10:54 AM 78.1 °F - 62.1 °F 58% 30.09 in 10.0 mi Variable 4.6 mph - N/A   Clear
11:54 AM 80.1 °F 81.1 °F 61.0 °F 52% 30.08 in 10.0 mi Calm Calm - N/A   Clear
12:54 PM 82.0 °F 82.1 °F 59.0 °F 45% 30.07 in 10.0 mi Calm Calm - N/A   Clear
1:54 PM 84.0 °F 84.4 °F 61.0 °F 46% 30.05 in 10.0 mi SSE 5.8 mph - N/A   Clear
2:54 PM 84.9 °F 84.2 °F 57.9 °F 40% 30.03 in 10.0 mi ESE 8.1 mph - N/A   Clear
3:54 PM 86.0 °F 85.4 °F 59.0 °F 40% 30.01 in 10.0 mi ESE 4.6 mph - N/A   Clear
4:54 PM 86.0 °F 84.9 °F 57.0 °F 37% 30.00 in 10.0 mi Variable 3.5 mph - N/A   Clear
5:54 PM 84.9 °F 84.2 °F 57.9 °F 40% 29.99 in 10.0 mi Calm Calm - N/A   Clear
6:54 PM 82.9 °F 82.8 °F 59.0 °F 44% 30.00 in 10.0 mi ESE 3.5 mph - N/A   Clear
7:54 PM 77.0 °F - 61.0 °F 58% 30.00 in 10.0 mi East 3.5 mph - N/A   Clear
8:54 PM 73.0 °F - 61.0 °F 66% 30.01 in 10.0 mi East 4.6 mph - N/A   Clear
9:54 PM 69.1 °F - 61.0 °F 75% 30.03 in 10.0 mi East 4.6 mph - N/A   Clear
10:54 PM 69.1 °F - 60.1 °F 73% 30.03 in 10.0 mi SE 4.6 mph - N/A   Clear
11:54 PM 68.0 °F - 60.1 °F 76% 30.04 in 10.0 mi Calm Calm - N/A   Clear